Airfield :
LOGIN :

Register | Disclaimer

   EN    FR    IT 

 










Legend :    VFR   Marginal VFR   IFR   Intensive IFR   Very Intensive IFR
Visi :
Ceiling :
>= 8 km
>= 3000ft
5 to 8 km
1000 to 3000 ft
1500m to 5 km
500 to 1000 ft
800 to 1500m
200 to 500 ft
< 800m
< 200 ft
Symbols :   Thunderstorms  Fog  Heavy snow  Heavy precipitations  Wind > 20 kt
SIGMETs :     Misc.  Thunderstorms  Icing  Turbulence  Mountain Waves  Volcanic Ashes







- Airport Elevation : 28 ft
- IATA code : SOZ
- Download approach charts


LFKS - Solenzara

CURRENT METAR :
  • 112100Z AUTO 28007KT 9999 NCD 09/03 Q1018

EXPIRED METARs :
  • 112030Z AUTO 28007KT CAVOK 09/03 Q1018
  • 112000Z AUTO 27007KT 9999 NCD 09/03 Q1018
  • 111930Z AUTO 28006KT 250V310 9999 FEW078/// 09/03 Q1018
  • 111900Z AUTO 28007KT 9999 NCD 10/04 Q1018
  • 111830Z AUTO 28005KT 230V330 9999 NCD 10/04 Q1018

TAF TAF LFKS
Valid from the 11 at 21:00 until the 12 at 21:00 UTC


112000Z 1121/1221 27005KT CAVOK
No reported NOTAMs for that airfield.



MET'MAP, your aeronautical weather chart ! - Copyright ORBIFLY December 2007 - Disclaimer

ORBIFLY MET'MAP TEAM :

Programming & Development : Alexandra Zaïnal
Concept & Development : Baudouin d'Aumeries
Co-Development & Prog : Marc-Olivier Méhu
Technical & hardware support : Manuel Goepfert

Contact : metmap@orbifly.com




SOURCES & CREDITS :

   NOAA